Regional Weather Roundup
Issued by NWS

Home | Current Version | Previous Version | Graphics & Text | Print | Product List | Glossary On
Versions: 1 2 3 4 5 6 7 8 9 10 11 12 13 14 15 16 17 18 19 20 21 22 23 24 25 26 27 28 29 30 31 32 33 34 35 36 37 38 39 40 41 42 43 44 45 46 47 48 49 50
879
ASUS43 KMKX 230700
RWRWI

WISCONSIN REGIONAL WEATHER ROUNDUP
NATIONAL WEATHER SERVICE MILWAUKEE/SULLIVAN WI
100 AM CST THU NOV 23 2017

NOTE: "FAIR" INDICATES FEW OR NO CLOUDS BELOW 12,000 FEET WITH NO
SIGNIFICANT WEATHER AND/OR OBSTRUCTIONS TO VISIBILITY.

WIZ001-002-006>008-014>016-023>028-230800-
NORTHWEST WISCONSIN

CITY           SKY/WX    TMP DP  RH WIND       PRES   REMARKS
SUPERIOR ARPT  CLOUDY    24  22  89 CALM      29.97F
ASHLAND        CLOUDY    26  18  71 SW7       29.97F WCI  18
HAYWARD        CLOUDY    25  19  78 CALM      29.95F
SIREN          CLOUDY    27  19  72 SE3       29.95F
CUMBERLAND     CLOUDY    25  18  74 CALM      29.95F
RICE LAKE      CLOUDY    26  20  79 SE3       29.98S
CHETEK         CLOUDY    26  19  77 E5        29.96S WCI  20
LADYSMITH      CLOUDY    26  20  79 CALM      29.97F
EAU CLAIRE     NOT AVBL
MENOMONIE      PTCLDY    28  19  67 E3        29.95F
NEW RICHMOND   CLOUDY    25  16  70 CALM      29.94F
OSCEOLA        CLOUDY    24  18  77 CALM      29.97F
$$

WIZ003>005-009-010-017-018-230800-
NORTH CENTRAL WISCONSIN

CITY           SKY/WX    TMP DP  RH WIND       PRES   REMARKS
MANITOWISH WTR CLOUDY    22  21  95 SW3       29.94F
ARBOR VITAE    CLOUDY    24  21  88 SW3       29.94F
WOODRUFF       CLOUDY    24  21  88 SW3       29.94F
RHINELANDER    CLOUDY    23  21  92 SW7       29.94F WCI  15
EAGLE RIVER    CLOUDY    23  18  82 SW6       29.94F WCI  15
LAND O LAKES   CLOUDY    23  19  83 W5        29.95F WCI  17
PHILLIPS       CLOUDY    23  20  91 SW3       29.94F
TOMAHAWK       CLOUDY    23  20  90 S3        29.96F
MEDFORD        CLOUDY    25  19  80 S8        29.94F WCI  16
MERRILL        CLOUDY    25  20  83 CALM      29.97F
$$

WIZ029-030-035-036-043>047-230800-
CENTRAL WISCONSIN

CITY           SKY/WX    TMP DP  RH WIND       PRES   REMARKS
WAUSAU         CLOUDY    26  20  77 S9        29.95F WCI  17
MOSINEE        CLOUDY    27  23  86 SE6       29.99F WCI  20
MARSHFIELD     CLOUDY    27  18  69 S9        29.95F WCI  18
STEVENS POINT  CLOUDY    26  19  76 S7        30.01F WCI  18
WAUPACA        CLOUDY    29  24  79 S5        30.05F WCI  24
WAUTOMA        CLOUDY    28  21  75 S5        30.03F WCI  23
WISC RAPIDS    CLOUDY    29  18  63 S7        30.00F WCI  22
CAMP DOUGLAS   CLOUDY    31  17  55 S8        29.99F WCI  23
$$

WIZ011>013-019>022-031-037>040-048>050-230800-
NORTHEAST WISCONSIN

CITY           SKY/WX    TMP DP  RH WIND       PRES   REMARKS
ANTIGO         CLOUDY    24  20  86 SW10      29.97F WCI  13
SHAWANO        CLOUDY    30  22  73 SW6       30.03F WCI  24
OCONTO         CLOUDY    29  18  65 SW10G17   30.03F WCI  19
STURGEON BAY   CLOUDY    29  21  72 SW14      30.03F WCI  18
GREEN BAY      CLOUDY    28  25  88 SW10      30.04F WCI  19
MANITOWOC      CLOUDY    29  23  78 SW8       30.08  WCI  21
APPLETON       CLOUDY    28  25  86 S7        30.04F WCI  21
CLINTONVILLE   CLOUDY    28  21  74 SW7       30.04F WCI  21
OSHKOSH        CLOUDY    29  23  78 S7        30.05F WCI  22
$$

WIZ032>034-041-042-053>061-230800-
SOUTHWEST WISCONSIN

CITY           SKY/WX    TMP DP  RH WIND       PRES   REMARKS
LA CROSSE      CLOUDY    33  18  53 S9        29.98F WCI  25
SPARTA         CLOUDY    32  18  55 S3        30.01F
VIROQUA        CLOUDY    31  19  61 S8        29.98F WCI  24
BOSCOBEL       CLOUDY    35  16  45 S8        30.04F WCI  29
PRAIRIE DU CHI CLOUDY    34  14  43 SE3       30.04F
PLATTEVILLE    CLOUDY    32  21  64 S10       30.07F WCI  24
$$

WIZ056-057-062-063-064-067-068-230800-
SOUTH CENTRAL WISCONSIN

CITY           SKY/WX    TMP DP  RH WIND       PRES   REMARKS
REEDSBURG      CLOUDY    31  17  56 S7        30.04F WCI  24
BARABOO/DELLS  CLOUDY    31  16  54 S9        30.04F WCI  23
LONE ROCK      NOT AVBL
MINERAL POINT  CLOUDY    32  21  64 S10       30.05F WCI  24
MADISON        CLOUDY    31  18  58 S9        30.07F WCI  23
MIDDLETON      CLOUDY    32  19  58 S8        30.08F WCI  25
WATERTOWN      CLOUDY    31  19  61 SW7       30.09F WCI  24
MONROE         CLOUDY    32  21  64 S10       30.09F WCI  24
JANESVILLE     CLOUDY    32  21  64 SW8       30.11F WCI  25
$$

WIZ051-052-058>065-066-070>072-230800-
SOUTHEAST WISCONSIN

CITY           SKY/WX    TMP DP  RH WIND       PRES   REMARKS
MILWAUKEE      CLOUDY    32  20  61 SW8       30.11F WCI  25
WAUKESHA       CLOUDY    30  18  59 SW5       30.11F WCI  25
MILWAUKEE/TIMM CLOUDY    32  14  47 SW7       30.11F WCI  26
RACINE         CLOUDY    32  19  58 SW7       30.13F WCI  26
BURLINGTON     CLOUDY    33  25  70 SW8       30.12F WCI  27
KENOSHA        CLOUDY    32  18  56 SW9       30.12F WCI  24
FOND DU LAC    CLOUDY    30  20  66 S8        30.06F WCI  22
SHEBOYGAN      CLOUDY    28  25  88 SW5       30.08F WCI  23
WEST BEND      CLOUDY    30  19  64 SW7       30.09F WCI  23
JUNEAU         CLOUDY    30  19  64 S9        30.09F WCI  21
$$

LSZ147-162-230800-
LAKE SUPERIOR

STATION/POSITION TIME  TEMP    WIND        PRES    WAVE
                       AIR SEA DIR/SP/G            HT/PER
                 (UTC) (F)     (DEG/KT/KT) (MB)    (FT/S)
DEVILS ISLAND    0600   28     230/ 16/ 19 1015.7F
SAXON HARBOR     0640   27     190/  6/ 11 1014.6F
$$

LMZ867-665-643>646-230800-
LAKE MICHIGAN

STATION/POSITION TIME  TEMP    WIND        PRES    WAVE
                       AIR SEA DIR/SP/G            HT/PER
                 (UTC) (F)     (DEG/KT/KT) (MB)    (FT/S)
N MID LAKE BUOY  0550   33 47  230/ 19/ 23 1018.1F   4/ 5
NORTHPORT PIER   0640   30     230/  2/  5 1016.6F
KEWAUNEE LAKESHO 0630   29     230/  9/ 15 1017.7F
SHEBOYGAN LAKESH 0600   28     210/  8/  9 1020.6F
PORT WASHINGTON  0640   32     240/  4/  8 1020.3F
MILWAUKEE LAKESH 0630   33     210/ 10/ 12   N/A
S MID LAKE BUOY  0550   36 47  270/ 16/ 19 1021.8F   3/ 4
KENOSHA   LAKESH 0600   32     230/  7/ 10 1021.3
$$

TC  - TEMPERATURE IN CELSIUS
VSB - VISIBILITY IN STATUTE MILES
WCI - WIND CHILL INDEX
HX  - HEAT INDEX





USA.gov is the U.S. government's official web portal to all federal, state and local government web resources and services.